Regional Weather Roundup
Issued by NWS

Home | Current Version | Previous Version | Text Only | Print | Product List | Glossary On
Versions: 1 2 3 4 5 6 7 8 9 10 11 12 13 14 15 16 17 18 19 20 21 22 23 24 25 26 27 28 29 30 31 32 33 34 35 36 37 38 39 40 41 42 43 44 45 46 47 48 49 50
363
ASUS43 KMKX 230820
RWRWI

WISCONSIN REGIONAL WEATHER ROUNDUP
NATIONAL WEATHER SERVICE MILWAUKEE/SULLIVAN WI
200 AM CST TUE JAN 23 2018

NOTE: "FAIR" INDICATES FEW OR NO CLOUDS BELOW 12,000 FEET WITH NO
SIGNIFICANT WEATHER AND/OR OBSTRUCTIONS TO VISIBILITY.

WIZ001-002-006>008-014>016-023>028-230900-
NORTHWEST WISCONSIN

CITY           SKY/WX    TMP DP  RH WIND       PRES   REMARKS
SUPERIOR ARPT  CLOUDY    18  11  74 N8        29.92R WCI   7
ASHLAND        CLOUDY    20  17  88 N13       29.88R WCI   7
HAYWARD        CLOUDY    21  17  84 N10       29.82R WCI  10
SIREN          CLOUDY    20  14  75 N10G17    29.87R WCI   9
CUMBERLAND     CLOUDY    23  18  80 N14       29.79R WCI  11
RICE LAKE      CLOUDY    24  21  88 N15       29.79S WCI  12
CHETEK         CLOUDY    23  20  87 N6        29.78R WCI  16
LADYSMITH      LGT SNOW  22  19  88 N17G24    29.75R WCI   8
EAU CLAIRE     LGT SNOW  23  20  88 N13G22    29.74R FOG     WCI  11
MENOMONIE      LGT SNOW  26  22  87 NW14G20   29.77R WCI  14
NEW RICHMOND   CLOUDY    23  17  77 N17       29.82R WCI   9
OSCEOLA        CLOUDY    24  16  73 N14G20    29.87R WCI  11
$$

WIZ003>005-009-010-017-018-230900-
NORTH CENTRAL WISCONSIN

CITY           SKY/WX    TMP DP  RH WIND       PRES   REMARKS
MANITOWISH WTR LGT SNOW  19  19 100 N15G23    29.70S WCI   5
ARBOR VITAE    LGT SNOW  22  19  89 N21G28    29.66S WCI   6
WOODRUFF       LGT SNOW  22  19  89 N21G28    29.66S WCI   6
RHINELANDER    LGT SNOW  21  18  88 N14G22    29.63R FOG     WCI   8
EAGLE RIVER    MOCLDY    20  18  91 N15G21    29.64R WCI   6
LAND O LAKES   CLOUDY    20  17  88 N13G23    29.67R WCI   7
PHILLIPS       LGT SNOW  20  18  93 N14G21    29.70R WCI   7
TOMAHAWK       LGT SNOW  21  17  86 N8G20     29.65S WCI  11
MEDFORD        LGT SNOW  21  17  85 N16G22    29.64R WCI   7
MERRILL        LGT SNOW  23  19  85 N15G24    29.63S WCI  10
$$

WIZ029-030-035-036-043>047-230900-
CENTRAL WISCONSIN

CITY           SKY/WX    TMP DP  RH WIND       PRES   REMARKS
WAUSAU         LGT SNOW  23  21  92 N12G22    29.60R FOG     WCI  12
MOSINEE        LGT SNOW  23  23 100 N14       29.61R WCI  11
MARSHFIELD     LGT SNOW  24  21  88 N14       29.62R FOG     WCI  12
STEVENS POINT  CLOUDY    25  24  96 N13       29.60R WCI  13
WAUPACA        CLOUDY    31  26  82 NW10      29.57R WCI  22
WAUTOMA        CLOUDY    28  27  93 N13       29.58R WCI  18
WISC RAPIDS    NOT AVBL
CAMP DOUGLAS   CLOUDY    28  26  91 NW13      29.62R WCI  18
$$

WIZ011>013-019>022-031-037>040-048>050-230900-
NORTHEAST WISCONSIN

CITY           SKY/WX    TMP DP  RH WIND       PRES   REMARKS
ANTIGO         CLOUDY    22  19  88 N16       29.58R WCI   9
SHAWANO        CLOUDY    30  26  84 N10       29.57S WCI  21
OCONTO         CLOUDY    28  24  88 N8        29.56R WCI  19
STURGEON BAY   FLURRIES  26  24  92 N25G32    29.52R WCI  11
GREEN BAY      CLOUDY    29  25  85 N18G26    29.54R WCI  16
MANITOWOC      MIX PCPN  28  26  92 N23G30    29.49R WCI  14
APPLETON       CLOUDY    28  28 100 N16       29.53R WCI  17
CLINTONVILLE   LGT SNOW  30  25  80 N9        29.57R WCI  22
OSHKOSH        CLOUDY    29  25  85 N20G25    29.55R WCI  16
$$

WIZ032>034-041-042-053>061-230900-
SOUTHWEST WISCONSIN

CITY           SKY/WX    TMP DP  RH WIND       PRES   REMARKS
LA CROSSE      LGT SNOW  29  25  85 N14G24    29.71R FOG     WCI  18
SPARTA         CLOUDY    28  24  88 N9G16     29.68R WCI  19
VIROQUA        CLOUDY    28  27  99 N14G23    29.63R WCI  16
BOSCOBEL       CLOUDY    33  32  96 N12G21    29.63R WCI  24
PRAIRIE DU CHI CLOUDY    32  28  83 N12G20    29.64R WCI  23
PLATTEVILLE    CLOUDY    32  32 100 N13       29.58R WCI  22
$$

WIZ056-057-062-063-064-067-068-230900-
SOUTH CENTRAL WISCONSIN

CITY           SKY/WX    TMP DP  RH WIND       PRES   REMARKS
REEDSBURG      CLOUDY    30  29  96 N15G22    29.58R WCI  19
BARABOO/DELLS  CLOUDY    30  28  94 N10       29.57R WCI  21
LONE ROCK      CLOUDY    33  28  81 N8G26     29.60R WCI  26
MINERAL POINT  CLOUDY    32  32 100 N13       29.56R WCI  22
MADISON        CLOUDY    30  28  92 N10       29.55R WCI  21
MIDDLETON      CLOUDY    32  30  93 N12       29.56R WCI  23
WATERTOWN      MIX PCPN  30  30 100 N9        29.51R WCI  21
MONROE         LGT SNOW  32  32 100 N13       29.53R WCI  22
JANESVILLE     LGT SNOW  32  32 100 N8        29.53R WCI  25
$$

WIZ051-052-058>065-066-070>072-230900-
SOUTHEAST WISCONSIN

CITY           SKY/WX    TMP DP  RH WIND       PRES   REMARKS
MILWAUKEE      LGT SNOW  33  32  96 NW16G23   29.49R VSB 3/4 WCI  23
WAUKESHA       LGT SNOW  30  28  93 NW14      29.50R WCI  20
MILWAUKEE/TIMM LGT SNOW  32  30  93 NW14      29.50R WCI  22
RACINE         LGT SNOW  33  33 100 SW3       29.51R VSB 1
BURLINGTON     LGT SNOW  32  30  94 CALM      29.51R VSB 3/4
KENOSHA        LGT SNOW  33  31  92 W7        29.50R VSB 3/4 WCI  27
FOND DU LAC    CLOUDY    30  25  81 N18G24    29.54R WCI  18
SHEBOYGAN      MIX PCPN  29  28  96 N18G25    29.50R WCI  16
WEST BEND      LGT SNOW  30  30 100 N12G20    29.51R WCI  21
JUNEAU         CLOUDY    29  28  95 N15G24    29.53R WCI  17
$$

LSZ147-162-230900-
LAKE SUPERIOR

STATION/POSITION TIME  TEMP    WIND        PRES    WAVE
                       AIR SEA DIR/SP/G            HT/PER
                 (UTC) (F)     (DEG/KT/KT) (MB)    (FT/S)
DEVILS ISLAND    0800   22      30/ 14/ 16 1013.3R
SAXON HARBOR     0740   23      30/ 16/ 22 1010.8R
$$

LMZ867-665-643>646-230900-
LAKE MICHIGAN

STATION/POSITION TIME  TEMP    WIND        PRES    WAVE
                       AIR SEA DIR/SP/G            HT/PER
                 (UTC) (F)     (DEG/KT/KT) (MB)    (FT/S)
NORTHPORT PIER   0740   26      10/  7/ 10 1000.7S
KEWAUNEE LAKESHO 0754   27     350/ 11/ 17  998.6R
SHEBOYGAN LAKESH 0800   29     330/ 19/ 22  999.5R
PORT WASHINGTON  0730   32     310/  7/ 11 1000.0R
MILWAUKEE LAKESH 0800   32     330/  9/ 12   N/A
KENOSHA   LAKESH 0800   33     270/  5/  8  999.3
$$

TC  - TEMPERATURE IN CELSIUS
VSB - VISIBILITY IN STATUTE MILES
WCI - WIND CHILL INDEX
HX  - HEAT INDEX





USA.gov is the U.S. government's official web portal to all federal, state and local government web resources and services.